| time (UTC) | temp F | wind direction | speed MPH | gust MPH | rain 1hr in | rain 24hr in | rain mn in | humidity % | barometer mb |
| 20260505153059 | 77 | 197 | 3.0 | 7.0 | 0.00 | 0.00 | 0.00 | 51 | 1011.4 |
| 20260505152535 | 76 | 204 | 3.0 | 7.0 | 0.00 | 0.00 | 0.00 | 53 | 1011.3 |
| 20260505152016 | 77 | 232 | 2.0 | 4.0 | 0.00 | 0.00 | 0.00 | 52 | 1011.4 |
| 20260505151504 | 76 | 260 | 1.0 | 4.0 | 0.00 | 0.00 | 0.00 | 53 | 1011.4 |
| 20260505151057 | 76 | 219 | 2.0 | 7.0 | 0.00 | 0.00 | 0.00 | 54 | 1011.3 |
| 20260505150541 | 75 | 200 | 2.0 | 8.0 | 0.00 | 0.00 | 0.00 | 53 | 1011.2 |
| 20260505140529 | 71 | 205 | 2.0 | 5.0 | 0.00 | 0.00 | 0.00 | 62 | 1012.0 |
| 20260505124511 | 63 | 187 | 1.0 | 6.0 | 0.00 | 0.00 | 0.00 | 74 | 1012.4 |
| 20260505124037 | 63 | 213 | 2.0 | 6.0 | 0.00 | 0.00 | 0.00 | 72 | 1012.3 |
| 20260505123600 | 63 | 178 | 3.0 | 6.0 | 0.00 | 0.00 | 0.00 | 73 | 1012.4 |
| 20260505123051 | 62 | 227 | 2.0 | 6.0 | 0.00 | 0.00 | 0.00 | 74 | 1012.4 |
| 20260505122505 | 62 | 201 | 2.0 | 6.0 | 0.00 | 0.00 | 0.00 | 75 | 1012.2 |
| 20260505122044 | 61 | 220 | 3.0 | 7.0 | 0.00 | 0.00 | 0.00 | 75 | 1012.2 |
| 20260505121605 | 61 | 138 | 3.0 | 7.0 | 0.00 | 0.00 | 0.00 | 75 | 1012.2 |
| 20260505121015 | 61 | 171 | 4.0 | 7.0 | 0.00 | 0.00 | 0.00 | 76 | 1012.1 |
| 20260505120535 | 60 | 200 | 2.0 | 7.0 | 0.00 | 0.00 | 0.00 | 78 | 1012.1 |
| 20260505120100 | 60 | 202 | 3.0 | 5.0 | 0.00 | 0.00 | 0.00 | 80 | 1012.1 |
| 20260505115529 | 59 | 189 | 2.0 | 5.0 | 0.00 | 0.00 | 0.00 | 81 | 1012.2 |
| 20260505115049 | 58 | 189 | 2.0 | 6.0 | 0.00 | 0.00 | 0.00 | 85 | 1012.2 |
| 20260505114616 | 57 | 198 | 2.0 | 4.0 | 0.00 | 0.00 | 0.00 | 88 | 1012.1 |
| 20260505114019 | 55 | 196 | 1.0 | 3.0 | 0.00 | 0.00 | 0.00 | 94 | 1012.1 |
| 20260505113603 | 54 | 248 | 0.0 | 2.0 | 0.00 | 0.00 | 0.00 | 97 | 1012.1 |
| 20260505113015 | 54 | 286 | 0.0 | 0.0 | 0.00 | 0.00 | 0.00 | 98 | 1012.1 |
| 20260505112549 | 53 | 286 | 0.0 | 0.0 | 0.00 | 0.00 | 0.00 | 98 | 1012.1 |
| 20260505112111 | 53 | 360 | 0.0 | 0.0 | 0.00 | 0.00 | 0.00 | 98 | 1012.0 |
| 20260505111556 | 52 | 286 | 0.0 | 0.0 | 0.00 | 0.00 | 0.00 | 97 | 1011.9 |
| 20260505111015 | 52 | 360 | 0.0 | 0.0 | 0.00 | 0.00 | 0.00 | 97 | 1012.0 |
| 20260505110533 | 51 | 360 | 0.0 | 0.0 | 0.00 | 0.00 | 0.00 | 96 | 1012.0 |
| 20260505102002 | 51 | 360 | 0.0 | 0.0 | 0.00 | 0.00 | 0.00 | 93 | 1011.8 |
| 20260505101546 | 51 | 252 | 0.0 | 0.0 | 0.00 | 0.00 | 0.00 | 93 | 1011.7 |
| 20260505101107 | 51 | 360 | 0.0 | 0.0 | 0.00 | 0.00 | 0.00 | 93 | 1011.7 |
| 20260505100517 | 52 | 360 | 0.0 | 1.0 | 0.00 | 0.00 | 0.00 | 92 | 1011.5 |
| 20260505100037 | 52 | 253 | 0.0 | 2.0 | 0.00 | 0.00 | 0.00 | 92 | 1011.6 |
| 20260505095007 | 53 | 360 | 0.0 | 0.0 | 0.00 | 0.00 | 0.00 | 90 | 1011.6 |
| 20260505094546 | 53 | 360 | 0.0 | 0.0 | 0.00 | 0.00 | 0.00 | 91 | 1011.6 |
| 20260505094029 | 54 | 196 | 0.0 | 0.0 | 0.00 | 0.00 | 0.00 | 90 | 1011.6 |
| 20260505093546 | 54 | 195 | 0.0 | 0.0 | 0.00 | 0.00 | 0.00 | 89 | 1011.6 |
| 20260505093019 | 54 | 360 | 0.0 | 0.0 | 0.00 | 0.00 | 0.00 | 88 | 1011.4 |
| 20260505092545 | 54 | 360 | 0.0 | 2.0 | 0.00 | 0.00 | 0.00 | 86 | 1011.4 |
| 20260505092014 | 54 | 196 | 1.0 | 2.0 | 0.00 | 0.00 | 0.00 | 84 | 1011.4 |
| 20260505091539 | 54 | 360 | 0.0 | 2.0 | 0.00 | 0.00 | 0.00 | 83 | 1011.4 |
| 20260505091006 | 55 | 360 | 0.0 | 0.0 | 0.00 | 0.00 | 0.00 | 83 | 1011.2 |
| 20260505090550 | 55 | 360 | 0.0 | 0.0 | 0.00 | 0.00 | 0.00 | 83 | 1011.2 |
| 20260505090030 | 55 | 257 | 0.0 | 0.0 | 0.00 | 0.00 | 0.00 | 82 | 1010.9 |
| 20260505085547 | 55 | 257 | 0.0 | 0.0 | 0.00 | 0.00 | 0.00 | 81 | 1011.0 |
| 20260505085018 | 55 | 257 | 0.0 | 2.0 | 0.00 | 0.00 | 0.00 | 80 | 1011.0 |
| 20260505084537 | 56 | 257 | 0.0 | 2.0 | 0.00 | 0.00 | 0.00 | 80 | 1011.0 |
| 20260505084059 | 56 | 221 | 0.0 | 1.0 | 0.00 | 0.00 | 0.00 | 80 | 1011.0 |
| 20260505083515 | 56 | 198 | 0.0 | 1.0 | 0.00 | 0.00 | 0.00 | 79 | 1010.9 |
| 20260505083044 | 57 | 360 | 0.0 | 2.0 | 0.00 | 0.00 | 0.00 | 79 | 1010.9 |
| 20260505082558 | 57 | 198 | 0.0 | 2.0 | 0.00 | 0.00 | 0.00 | 78 | 1011.0 |
| 20260505082019 | 57 | 360 | 0.0 | 2.0 | 0.00 | 0.00 | 0.00 | 78 | 1011.0 |
| 20260505081548 | 57 | 360 | 0.0 | 3.0 | 0.00 | 0.00 | 0.00 | 79 | 1011.0 |
| 20260505081021 | 57 | 360 | 1.0 | 3.0 | 0.00 | 0.00 | 0.00 | 79 | 1011.0 |
| 20260505080538 | 56 | 360 | 1.0 | 3.0 | 0.00 | 0.00 | 0.00 | 80 | 1011.0 |
| 20260505080104 | 56 | 360 | 2.0 | 3.0 | 0.00 | 0.00 | 0.00 | 79 | 1011.1 |
| 20260505075519 | 56 | 360 | 1.0 | 3.0 | 0.00 | 0.00 | 0.00 | 80 | 1011.0 |
| 20260505075106 | 56 | 198 | 1.0 | 3.0 | 0.00 | 0.00 | 0.00 | 81 | 1011.0 |
| 20260505074517 | 56 | 360 | 0.0 | 2.0 | 0.00 | 0.00 | 0.00 | 82 | 1011.0 |
| 20260505074038 | 56 | 360 | 1.0 | 2.0 | 0.00 | 0.00 | 0.00 | 82 | 1011.0 |
| 20260505073610 | 55 | 198 | 1.0 | 2.0 | 0.00 | 0.00 | 0.00 | 82 | 1011.0 |
| 20260505073021 | 56 | 360 | 1.0 | 2.0 | 0.00 | 0.00 | 0.00 | 82 | 1011.1 |
| 20260505072546 | 56 | 198 | 1.0 | 2.0 | 0.00 | 0.00 | 0.00 | 81 | 1011.0 |
| 20260505072015 | 56 | 198 | 1.0 | 2.0 | 0.00 | 0.00 | 0.00 | 80 | 1011.1 |
| 20260505071542 | 56 | 198 | 0.0 | 2.0 | 0.00 | 0.00 | 0.00 | 79 | 1011.1 |
| 20260505071109 | 56 | 198 | 1.0 | 3.0 | 0.00 | 0.00 | 0.00 | 78 | 1011.0 |
| 20260505070546 | 56 | 360 | 1.0 | 3.0 | 0.00 | 0.00 | 0.00 | 78 | 1011.1 |
| 20260505070033 | 56 | 204 | 1.0 | 3.0 | 0.00 | 0.00 | 0.00 | 79 | 1011.0 |
| 20260505065552 | 55 | 360 | 2.0 | 3.0 | 0.00 | 0.00 | 0.00 | 79 | 1011.0 |
| 20260505065048 | 54 | 360 | 0.0 | 2.0 | 0.00 | 0.00 | 0.00 | 79 | 1011.0 |
| 20260505064514 | 54 | 360 | 0.0 | 2.0 | 0.00 | 0.00 | 0.00 | 79 | 1011.0 |
| 20260505064049 | 54 | 360 | 0.0 | 2.0 | 0.00 | 0.00 | 0.00 | 79 | 1011.1 |
| 20260505063523 | 54 | 234 | 0.0 | 1.0 | 0.00 | 0.00 | 0.00 | 78 | 1011.0 |
| 20260505063001 | 55 | 360 | 0.0 | 1.0 | 0.00 | 0.00 | 0.00 | 77 | 1011.1 |
| 20260505062545 | 55 | 277 | 0.0 | 1.0 | 0.00 | 0.00 | 0.00 | 77 | 1011.1 |
| 20260505062020 | 55 | 275 | 0.0 | 1.0 | 0.00 | 0.00 | 0.00 | 75 | 1011.1 |
| 20260505061504 | 55 | 360 | 0.0 | 1.0 | 0.00 | 0.00 | 0.00 | 75 | 1011.2 |
| 20260505061045 | 56 | 360 | 0.0 | 1.0 | 0.00 | 0.00 | 0.00 | 74 | 1011.1 |
| 20260505060523 | 56 | 360 | 0.0 | 0.0 | 0.00 | 0.00 | 0.00 | 74 | 1011.1 |
| 20260505060104 | 56 | 277 | 0.0 | 1.0 | 0.00 | 0.00 | 0.00 | 73 | 1011.2 |
| 20260505055522 | 56 | 275 | 0.0 | 2.0 | 0.00 | 0.00 | 0.00 | 72 | 1011.1 |
| 20260505055056 | 57 | 360 | 0.0 | 2.0 | 0.00 | 0.00 | 0.00 | 71 | 1011.1 |
| 20260505054633 | 57 | 360 | 0.0 | 2.0 | 0.00 | 0.00 | 0.00 | 71 | 1011.1 |
| 20260505054038 | 57 | 252 | 0.0 | 2.0 | 0.00 | 0.00 | 0.00 | 70 | 1011.1 |
| 20260505053558 | 58 | 360 | 0.0 | 2.0 | 0.00 | 0.00 | 0.00 | 69 | 1011.0 |
| 20260505053032 | 58 | 232 | 0.0 | 3.0 | 0.00 | 0.00 | 0.00 | 68 | 1011.1 |
| 20260505052552 | 59 | 360 | 1.0 | 4.0 | 0.00 | 0.00 | 0.00 | 67 | 1011.0 |
| 20260505052048 | 59 | 202 | 1.0 | 4.0 | 0.00 | 0.00 | 0.00 | 66 | 1011.0 |
| 20260505051611 | 59 | 190 | 1.0 | 5.0 | 0.00 | 0.00 | 0.00 | 66 | 1011.0 |
| 20260505051059 | 59 | 175 | 1.0 | 5.0 | 0.00 | 0.00 | 0.00 | 66 | 1011.1 |
| 20260505050533 | 59 | 360 | 2.0 | 4.0 | 0.00 | 0.00 | 0.00 | 66 | 1011.2 |
| 20260505041530 | 57 | 194 | 2.0 | 3.0 | 0.00 | 0.00 | 0.00 | 68 | 1011.1 |
| 20260505041109 | 56 | 187 | 1.0 | 4.0 | 0.00 | 0.00 | 0.00 | 70 | 1011.2 |
| 20260505040520 | 55 | 360 | 1.0 | 3.0 | 0.00 | 0.00 | 0.00 | 73 | 1011.2 |
| 20260505040002 | 54 | 360 | 0.0 | 2.0 | 0.00 | 0.00 | 0.00 | 75 | 1011.1 |
| 20260505035534 | 53 | 186 | 0.0 | 1.0 | 0.00 | 0.00 | 0.00 | 77 | 1011.3 |
| 20260505035006 | 53 | 360 | 0.0 | 1.0 | 0.00 | 0.00 | 0.00 | 77 | 1011.1 |
| 20260505034525 | 54 | 360 | 0.0 | 0.0 | 0.00 | 0.00 | 0.00 | 77 | 1011.2 |
| 20260505034049 | 54 | 360 | 0.0 | 0.0 | 0.00 | 0.00 | 0.00 | 76 | 1011.2 |
| 20260505033524 | 54 | 186 | 0.0 | 0.0 | 0.00 | 0.00 | 0.00 | 74 | 1011.2 |
| 20260505033056 | 54 | 186 | 0.0 | 0.0 | 0.00 | 0.00 | 0.00 | 73 | 1011.3 |
| 20260505032547 | 54 | 186 | 0.0 | 0.0 | 0.00 | 0.00 | 0.00 | 72 | 1011.3 |
| 20260505032006 | 54 | 186 | 0.0 | 0.0 | 0.00 | 0.00 | 0.00 | 73 | 1011.4 |
| 20260505031527 | 54 | 186 | 0.0 | 0.0 | 0.00 | 0.00 | 0.00 | 74 | 1011.4 |
| 20260505031002 | 54 | 186 | 0.0 | 1.0 | 0.00 | 0.00 | 0.00 | 73 | 1011.5 |
| 20260505030530 | 54 | 360 | 0.0 | 1.0 | 0.00 | 0.00 | 0.00 | 73 | 1011.4 |
| 20260505030109 | 54 | 186 | 0.0 | 1.0 | 0.00 | 0.00 | 0.00 | 74 | 1011.4 |
| 20260505025517 | 54 | 186 | 0.0 | 1.0 | 0.00 | 0.00 | 0.00 | 74 | 1011.3 |
| 20260505025039 | 54 | 186 | 0.0 | 0.0 | 0.00 | 0.00 | 0.00 | 73 | 1011.4 |
| 20260505024608 | 54 | 186 | 0.0 | 0.0 | 0.00 | 0.00 | 0.00 | 74 | 1011.4 |
| 20260505024019 | 55 | 186 | 0.0 | 0.0 | 0.00 | 0.00 | 0.00 | 73 | 1011.6 |
| 20260505023550 | 55 | 186 | 0.0 | 0.0 | 0.00 | 0.00 | 0.00 | 72 | 1011.7 |
| 20260505023041 | 55 | 186 | 0.0 | 0.0 | 0.00 | 0.00 | 0.00 | 72 | 1011.6 |
| 20260505022606 | 55 | 186 | 0.0 | 0.0 | 0.00 | 0.00 | 0.00 | 71 | 1011.7 |
| 20260505022041 | 55 | 186 | 0.0 | 0.0 | 0.00 | 0.00 | 0.00 | 71 | 1011.7 |
| 20260505021519 | 56 | 186 | 0.0 | 0.0 | 0.00 | 0.00 | 0.00 | 70 | 1011.7 |
| 20260505021044 | 56 | 186 | 0.0 | 1.0 | 0.00 | 0.00 | 0.00 | 69 | 1011.7 |
| 20260505020506 | 56 | 186 | 0.0 | 1.0 | 0.00 | 0.00 | 0.00 | 70 | 1011.7 |
| 20260505020025 | 56 | 186 | 0.0 | 1.0 | 0.00 | 0.00 | 0.00 | 70 | 1011.7 |
| 20260505015550 | 56 | 186 | 0.0 | 0.0 | 0.00 | 0.00 | 0.00 | 69 | 1011.7 |
| 20260505015030 | 56 | 186 | 0.0 | 0.0 | 0.00 | 0.00 | 0.00 | 68 | 1011.6 |
| 20260505014512 | 57 | 186 | 0.0 | 0.0 | 0.00 | 0.00 | 0.00 | 67 | 1011.6 |
| 20260505014048 | 57 | 360 | 0.0 | 0.0 | 0.00 | 0.00 | 0.00 | 66 | 1011.6 |
| 20260505013539 | 58 | 360 | 0.0 | 1.0 | 0.00 | 0.00 | 0.00 | 65 | 1011.6 |
| 20260505013031 | 58 | 360 | 0.0 | 1.0 | 0.00 | 0.00 | 0.00 | 64 | 1011.5 |
| 20260505012502 | 58 | 360 | 0.0 | 0.0 | 0.00 | 0.00 | 0.00 | 64 | 1011.4 |
| 20260505012053 | 59 | 360 | 0.0 | 0.0 | 0.00 | 0.00 | 0.00 | 63 | 1011.3 |
| 20260505011521 | 59 | 360 | 0.0 | 0.0 | 0.00 | 0.00 | 0.00 | 62 | 1011.2 |
| 20260505011058 | 60 | 360 | 0.0 | 0.0 | 0.00 | 0.00 | 0.00 | 61 | 1011.2 |
| 20260505010525 | 60 | 186 | 0.0 | 0.0 | 0.00 | 0.00 | 0.00 | 59 | 1011.1 |
| 20260505010002 | 60 | 186 | 0.0 | 0.0 | 0.00 | 0.00 | 0.00 | 59 | 1011.1 |
| 20260505005526 | 61 | 186 | 0.0 | 1.0 | 0.00 | 0.00 | 0.00 | 58 | 1011.1 |
| 20260505005049 | 61 | 186 | 0.0 | 1.0 | 0.00 | 0.00 | 0.00 | 58 | 1011.1 |
| 20260505004524 | 62 | 186 | 0.0 | 1.0 | 0.00 | 0.00 | 0.00 | 57 | 1011.1 |
| 20260505004003 | 63 | 186 | 0.0 | 1.0 | 0.00 | 0.00 | 0.00 | 55 | 1010.9 |
| 20260505003547 | 63 | 186 | 0.0 | 1.0 | 0.00 | 0.00 | 0.00 | 54 | 1010.9 |
| 20260505003001 | 64 | 186 | 0.0 | 2.0 | 0.00 | 0.00 | 0.00 | 54 | 1010.9 |
| 20260505002527 | 64 | 186 | 0.0 | 3.0 | 0.00 | 0.00 | 0.00 | 53 | 1010.9 |
| 20260505002044 | 65 | 186 | 1.0 | 3.0 | 0.00 | 0.00 | 0.00 | 51 | 1010.8 |
| 20260505001518 | 65 | 194 | 1.0 | 3.0 | 0.00 | 0.00 | 0.00 | 51 | 1010.7 |
| 20260505001103 | 65 | 192 | 1.0 | 3.0 | 0.00 | 0.00 | 0.00 | 50 | 1010.7 |
| 20260505000537 | 65 | 201 | 1.0 | 4.0 | 0.00 | 0.00 | 0.00 | 49 | 1010.7 |
| 20260505000028 | 66 | 188 | 2.0 | 6.0 | 0.00 | 0.00 | 0.00 | 49 | 1010.7 |
| 20260504235601 | 66 | 203 | 2.0 | 6.0 | 0.00 | 0.00 | 0.00 | 49 | 1010.7 |
| 20260504235030 | 66 | 200 | 2.0 | 5.0 | 0.00 | 0.00 | 0.00 | 48 | 1010.7 |
| 20260504234520 | 66 | 200 | 1.0 | 4.0 | 0.00 | 0.00 | 0.00 | 49 | 1010.6 |
| 20260504234001 | 66 | 195 | 2.0 | 8.0 | 0.00 | 0.00 | 0.00 | 47 | 1010.5 |
| 20260504233522 | 66 | 201 | 3.0 | 8.0 | 0.00 | 0.00 | 0.00 | 47 | 1010.5 |
| 20260504233105 | 67 | 207 | 1.0 | 4.0 | 0.00 | 0.00 | 0.00 | 47 | 1010.5 |
| 20260504232536 | 67 | 194 | 2.0 | 5.0 | 0.00 | 0.00 | 0.00 | 48 | 1010.5 |
| 20260504232056 | 67 | 192 | 2.0 | 7.0 | 0.00 | 0.00 | 0.00 | 47 | 1010.5 |
| 20260504231521 | 67 | 196 | 3.0 | 7.0 | 0.00 | 0.00 | 0.00 | 46 | 1010.4 |
| 20260504231040 | 68 | 204 | 3.0 | 6.0 | 0.00 | 0.00 | 0.00 | 46 | 1010.4 |
| 20260504230505 | 68 | 188 | 4.0 | 8.0 | 0.00 | 0.00 | 0.00 | 46 | 1010.3 |
| 20260504230101 | 68 | 200 | 5.0 | 8.0 | 0.00 | 0.00 | 0.00 | 46 | 1010.4 |
| 20260504225540 | 68 | 223 | 2.0 | 8.0 | 0.00 | 0.00 | 0.00 | 46 | 1010.5 |
| 20260504225059 | 68 | 197 | 5.0 | 8.0 | 0.00 | 0.00 | 0.00 | 46 | 1010.5 |
| 20260504224528 | 68 | 212 | 4.0 | 7.0 | 0.00 | 0.00 | 0.00 | 46 | 1010.4 |
| 20260504224056 | 68 | 209 | 3.0 | 8.0 | 0.00 | 0.00 | 0.00 | 46 | 1010.4 |
| 20260504223523 | 68 | 179 | 3.0 | 8.0 | 0.00 | 0.00 | 0.00 | 46 | 1010.5 |
| 20260504223050 | 68 | 196 | 3.0 | 6.0 | 0.00 | 0.00 | 0.00 | 46 | 1010.4 |
| 20260504222519 | 68 | 214 | 4.0 | 9.0 | 0.00 | 0.00 | 0.00 | 45 | 1010.5 |
| 20260504222055 | 69 | 202 | 3.0 | 9.0 | 0.00 | 0.00 | 0.00 | 47 | 1010.6 |
| 20260504221506 | 69 | 150 | 4.0 | 7.0 | 0.00 | 0.00 | 0.00 | 46 | 1010.5 |
| 20260504221025 | 69 | 188 | 3.0 | 9.0 | 0.00 | 0.00 | 0.00 | 46 | 1010.5 |
| 20260504220601 | 69 | 190 | 6.0 | 9.0 | 0.00 | 0.00 | 0.00 | 46 | 1010.6 |
| 20260504220036 | 69 | 196 | 4.0 | 9.0 | 0.00 | 0.00 | 0.00 | 46 | 1010.6 |
| 20260504215518 | 69 | 201 | 4.0 | 9.0 | 0.00 | 0.00 | 0.00 | 45 | 1010.6 |
| 20260504215101 | 69 | 178 | 5.0 | 9.0 | 0.00 | 0.00 | 0.00 | 45 | 1010.7 |
| 20260504214511 | 69 | 182 | 4.0 | 7.0 | 0.00 | 0.00 | 0.00 | 45 | 1010.6 |
| 20260504214056 | 69 | 188 | 3.0 | 7.0 | 0.00 | 0.00 | 0.00 | 47 | 1010.6 |
| 20260504213506 | 69 | 171 | 4.0 | 9.0 | 0.00 | 0.00 | 0.00 | 45 | 1010.7 |
| 20260504213136 | 69 | 146 | 6.0 | 11.0 | 0.00 | 0.00 | 0.00 | 45 | 1010.7 |
| 20260504212546 | 69 | 194 | 5.0 | 11.0 | 0.00 | 0.00 | 0.00 | 45 | 1010.7 |
| 20260504212001 | 69 | 224 | 3.0 | 6.0 | 0.00 | 0.00 | 0.00 | 47 | 1010.8 |
| 20260504211549 | 69 | 204 | 3.0 | 6.0 | 0.00 | 0.00 | 0.00 | 46 | 1010.7 |
| 20260504211010 | 68 | 153 | 3.0 | 6.0 | 0.00 | 0.00 | 0.00 | 46 | 1010.7 |
| 20260504210530 | 69 | 211 | 2.0 | 9.0 | 0.00 | 0.00 | 0.00 | 45 | 1010.7 |
| 20260504210106 | 69 | 183 | 4.0 | 9.0 | 0.00 | 0.00 | 0.00 | 46 | 1010.8 |
| 20260504205610 | 69 | 167 | 3.0 | 7.0 | 0.00 | 0.00 | 0.00 | 47 | 1010.7 |
| 20260504205024 | 68 | 156 | 4.0 | 8.0 | 0.00 | 0.00 | 0.00 | 46 | 1010.8 |
| 20260504204509 | 69 | 187 | 2.0 | 8.0 | 0.00 | 0.00 | 0.00 | 45 | 1010.7 |
| 20260504204038 | 69 | 198 | 5.0 | 8.0 | 0.00 | 0.00 | 0.00 | 45 | 1010.8 |
| 20260504203558 | 69 | 199 | 4.0 | 8.0 | 0.00 | 0.00 | 0.00 | 46 | 1010.8 |
| 20260504203019 | 69 | 206 | 2.0 | 8.0 | 0.00 | 0.00 | 0.00 | 45 | 1010.9 |
| 20260504202528 | 69 | 205 | 4.0 | 9.0 | 0.00 | 0.00 | 0.00 | 45 | 1010.9 |
| 20260504202048 | 69 | 193 | 5.0 | 9.0 | 0.00 | 0.00 | 0.00 | 44 | 1010.9 |
| 20260504201616 | 69 | 200 | 5.0 | 9.0 | 0.00 | 0.00 | 0.00 | 44 | 1010.9 |
| 20260504201018 | 70 | 196 | 2.0 | 9.0 | 0.00 | 0.00 | 0.00 | 43 | 1011.0 |
| 20260504200538 | 70 | 188 | 5.0 | 7.0 | 0.00 | 0.00 | 0.00 | 42 | 1011.1 |
| 20260504195507 | 70 | 212 | 3.0 | 11.0 | 0.00 | 0.00 | 0.00 | 44 | 1011.0 |
| 20260504195027 | 70 | 186 | 5.0 | 11.0 | 0.00 | 0.00 | 0.00 | 43 | 1011.0 |
| 20260504194603 | 70 | 209 | 3.0 | 8.0 | 0.00 | 0.00 | 0.00 | 43 | 1011.1 |
| 20260504194022 | 70 | 191 | 4.0 | 9.0 | 0.00 | 0.00 | 0.00 | 42 | 1011.1 |
| 20260504193542 | 70 | 201 | 3.0 | 9.0 | 0.00 | 0.00 | 0.00 | 45 | 1011.1 |
| 20260504193102 | 70 | 235 | 4.0 | 7.0 | 0.00 | 0.00 | 0.00 | 42 | 1011.2 |
| 20260504192511 | 70 | 191 | 3.0 | 13.0 | 0.00 | 0.00 | 0.00 | 44 | 1011.1 |
| 20260504192032 | 69 | 167 | 7.0 | 13.0 | 0.00 | 0.00 | 0.00 | 43 | 1011.1 |
| 20260504191526 | 70 | 194 | 3.0 | 9.0 | 0.00 | 0.00 | 0.00 | 42 | 1011.1 |
| 20260504191102 | 70 | 200 | 5.0 | 9.0 | 0.00 | 0.00 | 0.00 | 43 | 1011.2 |
| 20260504190512 | 70 | 234 | 5.0 | 10.0 | 0.00 | 0.00 | 0.00 | 44 | 1011.3 |
| 20260504190040 | 70 | 225 | 5.0 | 10.0 | 0.00 | 0.00 | 0.00 | 42 | 1011.3 |
| 20260504185552 | 70 | 189 | 2.0 | 9.0 | 0.00 | 0.00 | 0.00 | 46 | 1011.6 |
| 20260504185003 | 70 | 198 | 4.0 | 7.0 | 0.00 | 0.00 | 0.00 | 43 | 1011.7 |
| 20260504184559 | 70 | 169 | 3.0 | 7.0 | 0.00 | 0.00 | 0.00 | 44 | 1011.5 |
| 20260504184016 | 70 | 240 | 3.0 | 7.0 | 0.00 | 0.00 | 0.00 | 44 | 1011.8 |
| 20260504183536 | 70 | 195 | 2.0 | 8.0 | 0.00 | 0.00 | 0.00 | 46 | 1011.7 |
| 20260504183056 | 70 | 196 | 4.0 | 8.0 | 0.00 | 0.00 | 0.00 | 45 | 1011.8 |
| 20260504182505 | 70 | 174 | 3.0 | 8.0 | 0.00 | 0.00 | 0.00 | 43 | 1011.8 |
| 20260504182025 | 70 | 167 | 3.0 | 6.0 | 0.00 | 0.00 | 0.00 | 43 | 1011.9 |
| 20260504181548 | 70 | 232 | 2.0 | 7.0 | 0.00 | 0.00 | 0.00 | 43 | 1011.9 |
| 20260504181015 | 69 | 244 | 2.0 | 8.0 | 0.00 | 0.00 | 0.00 | 44 | 1012.1 |
| 20260504180540 | 70 | 234 | 4.0 | 8.0 | 0.00 | 0.00 | 0.00 | 43 | 1012.2 |
| 20260504180201 | 69 | 187 | 3.0 | 7.0 | 0.00 | 0.00 | 0.00 | 45 | 1012.3 |
| 20260504175533 | 69 | 215 | 2.0 | 9.0 | 0.00 | 0.00 | 0.00 | 42 | 1012.4 |
| 20260504175059 | 69 | 219 | 4.0 | 9.0 | 0.00 | 0.00 | 0.00 | 42 | 1012.4 |
| 20260504174625 | 69 | 188 | 5.0 | 9.0 | 0.00 | 0.00 | 0.00 | 43 | 1012.5 |
| 20260504174054 | 69 | 180 | 4.0 | 10.0 | 0.00 | 0.00 | 0.00 | 46 | 1012.5 |
| 20260504173523 | 69 | 167 | 4.0 | 8.0 | 0.00 | 0.00 | 0.00 | 44 | 1012.5 |
| 20260504173018 | 68 | 239 | 3.0 | 9.0 | 0.00 | 0.00 | 0.00 | 43 | 1012.7 |
| 20260504172541 | 68 | 207 | 4.0 | 9.0 | 0.00 | 0.00 | 0.00 | 42 | 1012.7 |
| 20260504172104 | 68 | 193 | 4.0 | 8.0 | 0.00 | 0.00 | 0.00 | 45 | 1012.7 |
| 20260504171530 | 68 | 248 | 3.0 | 12.0 | 0.00 | 0.00 | 0.00 | 44 | 1012.9 |
| 20260504171059 | 68 | 251 | 4.0 | 12.0 | 0.00 | 0.00 | 0.00 | 42 | 1012.9 |
| 20260504170510 | 68 | 217 | 3.0 | 8.0 | 0.00 | 0.00 | 0.00 | 42 | 1013.1 |